Location: Unspecified
(0.0000°N, 0.0000°E)
Time: 22:53:58
(UTC+00:00)

Vanguard 2 Rocket - Pass Details

Date: 13 December 2017
Orbit: 553 x 3328 km, 32.9° (Epoch: 25 April)

Event Time Altitude Azimuth Distance (km) Brightness Sun altitude
Rises 20:33:37 0° 304° (NW) 5,554 11.2 -36.0°
Reaches altitude 10° 20:39:18 10° 324° (NW) 5,085 10.7 -37.3°
Enters shadow 20:47:43 17° 357° (N) 5,142 10.4 -39.1°
